Regional Weather Roundup
Issued by NWS

Home | Current Version | Previous Version | Text Only | Print | Product List | Glossary On
Versions: 1 2 3 4 5 6 7 8 9 10 11 12 13 14 15 16 17 18 19 20 21 22 23 24 25 26 27 28 29 30 31 32 33 34 35 36 37 38 39 40 41 42 43 44 45 46 47 48 49 50
000
ASUS43 KLOT 080208
RWRIL

ILLINOIS REGIONAL WEATHER ROUNDUP
NATIONAL WEATHER SERVICE CHICAGO/ROMEOVILLE IL
800 PM CST SUN FEB 07 2016

NOTE: "FAIR" INDICATES FEW OR NO CLOUDS BELOW 12,000 FEET WITH NO
SIGNIFICANT WEATHER AND/OR OBSTRUCTIONS TO VISIBILITY.

* THESE STATIONS ARE NOT UNDER NWS QUALITY CONTROL. THEY ALSO MAY NOT
  REPORT WEATHER SUCH AS PRECIPITATION OR FOG.

ILZ001-002-007-009-015-016-024-080300-
NORTHWEST ILLINOIS

CITY           SKY/WX    TMP DP  RH WIND       PRES   REMARKS
MOLINE         PTCLDY    34  26  72 SW7       29.78F WCI  28
STERLING*      CLEAR     34  27  75 W10       29.74F WCI  26
SAVANNA*       CLEAR     36  28  75 W12       29.76F WCI  27
$$

ILZ003-004-008-010-011-017-018-080300-
NORTH CENTRAL ILLINOIS

CITY           SKY/WX    TMP DP  RH WIND       PRES   REMARKS
ROCKFORD       PTCLDY    35  28  75 W9        29.76F WCI  28
FREEPORT*      PTCLDY    34  28  80 SW9       29.75F WCI  26
ROCHELLE*      CLEAR     34  29  81 W10       29.76F WCI  26
DE KALB*       CLEAR     34  29  82 W10       29.75F WCI  26
$$

ILZ005-006-012>014-019>023-080300-
NORTHEAST ILLINOIS

CITY           SKY/WX    TMP DP  RH WIND       PRES   REMARKS
CHICAGO-OHARE  PTCLDY    37  27  67 W12       29.74S WCI  29
CHICAGO-MIDWAY MOCLDY    39  27  62 W12       29.75F WCI  32
AURORA         CLEAR     35  28  75 SW8       29.76F WCI  29
LANSING*       PTCLDY    38  28  67 W13       29.77S WCI  31
JOLIET*        PTCLDY    37  29  73 W3        29.78F
WAUKEGAN       CLEAR     36  27  69 W9G17     29.70F WCI  29
DUPAGE AIRPORT PTCLDY    34  26  72 W9        29.75F WCI  27
KANKAKEE*      CLOUDY    37  30  77 W6        29.80S WCI  32
WHEELING       PTCLDY    37  28  70 W10       29.74F WCI  30
MORRIS*        PTCLDY    34  29  83 W5        29.75F WCI  30
ROMEOVILLE*    PTCLDY    36  28  72 W9        29.77F WCI  29
NORTHERLY ISL    N/A     40  27  60 W8          N/A
$$

LMZ740>746-080300-
SOUTHERN LAKE MICHIGAN

STATION/POSITION SKY/WX   TEMP    WIND        PRES    VSBY  WAVE
                          AIR SEA DIR/SP/G                  HT/PER
                          (F)     (DEG/KT/KT) (MB)    (MI)  (FT/S)
HARRISON CRIB              42     260/ 20/ 23   N/A
BURNHAM HARBOR             40     270/  9/ 20   N/A
CALUMET HARBOR             41                 1007.1F
BURNS HARBOR               41     230/ 12/ 15 1008.5S
MICHIGAN CITY              41     200/ 15/ 16   N/A
$$

ILZ025>027-034>036-040-047-049-050-058-095>099-080300-
WEST-CENTRAL ILLINOIS

CITY           SKY/WX    TMP DP  RH WIND       PRES   REMARKS
QUINCY         MOCLDY    36  30  79 W16G23    29.88S WCI  26
GALESBURG*     CLEAR     35  27  74 SW5       29.81F WCI  31
MACOMB*        CLEAR     34  28  77 W8        29.85F WCI  27
JACKSONVILLE*  CLOUDY    40  32  72 SW7       29.86F
PITTSFIELD*    PTCLDY    36  31  83 S3        29.88F
$$

ILZ028>032-037-038-041>044-048-051>054-059>061-080300-
CENTRAL ILLINOIS

CITY           SKY/WX    TMP DP  RH WIND       PRES   REMARKS
PONTIAC        PTCLDY    36  31  83 W8        29.81F WCI  29
BLOOMINGTON    MOCLDY    37  29  73 NW9       29.82F WCI  30
DECATUR        PTCLDY    42  31  64 SW6       29.83F
PEORIA         CLEAR     39  26  59 NW8       29.82F WCI  33
LACON*         CLEAR     35  26  71 SW3       29.80F
LINCOLN*       CLOUDY    40  31  69 CALM      29.84S
SPRINGFIELD    CLOUDY    42  31  64 W21       29.86S
TAYLORVILLE    MOCLDY    39  32  75 W12G23    29.85S WCI  32
$$

ILZ033-039-045-046-055>057-062-063-080300-
EAST-CENTRAL ILLINOIS

CITY           SKY/WX    TMP DP  RH WIND       PRES   REMARKS
CHAMPAIGN      CLOUDY    37  32  82 SW6       29.82F WCI  32
RANTOUL*       CLOUDY    41  35  79 W9        29.82S
MATTOON        CLOUDY    40  31  70 W6        29.83F
PARIS*         PTCLDY    37  33  88 W7        29.84F WCI  31
$$

ILZ079-100>102-080300-
SOUTHWEST ILLINOIS

CITY           SKY/WX    TMP DP  RH WIND       PRES   REMARKS
ALTON          CLOUDY    43  32  65 W23       29.90R
BELLEVILLE     CLOUDY    47  28  48 SW9       29.88F
CAHOKIA*       CLOUDY    49  25  39 W7        29.89S
SPARTA*        CLOUDY    45  32  61 W7        29.93S
$$

ILZ064>066-069>071-074>076-080>082-084>086-088>090-092>094-080300-
SOUTH-CENTRAL ILLINOIS

CITY           SKY/WX    TMP DP  RH WIND       PRES   REMARKS
CARBONDALE     CLOUDY    50  27  40 NW10      29.90S
CAIRO*         MOCLDY    47  37  67 W6        29.91S
EFFINGHAM*     CLOUDY    43  33  67 SW7       29.87F
MARION         PTCLDY    48  30  49 CALM      29.90S
MT. VERNON     CLOUDY    46  28  49 CALM      29.89S
CENTRALIA*     RAIN      44  36  73 W13G25    29.90R
SALEM*         RAIN      46  35  65 W17G29    29.90R
METROPOLIS*    PTCLDY    48  35  60 SW8       29.90F
$$

ILZ067-068-072-073-078-083-087-091-080300-
SOUTHEAST ILLINOIS

CITY           SKY/WX    TMP DP  RH WIND       PRES   REMARKS
LAWRENCEVILLE  PTCLDY    43  31  62 W9        29.86S
FLORA*         MOCLDY    46  32  57 NW6       29.86F
FAIRFIELD*     CLOUDY    47  31  55 NW5       29.86F
HARRISBURG*    CLOUDY    47  32  56 W7        29.88F
ROBINSON*      PTCLDY    41  31  68 W10       29.86F
CARMI*         PTCLDY    44  32  63 W8        29.87S
$$

ABBREVIATIONS USED IN REMARKS
   TC - TEMPERATURE IN CELSIUS
  WCI - WIND CHILL INDEX
   HX - HEAT INDEX
  VSB - VISIBILITY
$$




USA.gov is the U.S. government's official web portal to all federal, state and local government web resources and services.